Scottsbluff, NE

6:03 PM MST on November 21, 2019 (GMT -0700)
Heilig

Weather History for KBFF - July, 2019

Change the Weather History Date:

Saturday, July 27, 2019

  Actual Average Record
Temperature  
Mean Temperature 76 °F -  
Max Temperature 87 °F 90 °F 102 °F (1975)
Min Temperature 66 °F 58 °F 46 °F (2005)
Cooling Degree Days 12    
Growing Degree Days 26 (Base 50)    
Moisture  
Dew Point 65 °F    
Average Humidity 77    
Maximum Humidity 93    
Minimum Humidity 41    
Precipitation  
Precipitation 0.02 in - - ()
Sea Level Pressure  
Sea Level Pressure 30.00 in    
Wind  
Wind Speed 5 mph (East)    
Max Wind Speed 24 mph    
Max Gust Speed 37 mph    
Visibility 9 miles    
Events Rain , Thunderstorm    
Averages and records for this station are not official NWS values.
T = Trace of Precipitation, MM = Missing Value Source: NWS Daily Summary

Daily Weather History Graph

Daily Weather History Graph

Search for Another Location

Airport or City:

Astronomy

Jul. 27, 2019 Rise Set
Actual Time 5:43 AM MDT 8:18 PM MDT
Civil Twilight 5:11 AM MDT 8:50 PM MDT
Nautical Twilight 4:31 AM MDT 9:29 PM MDT
Astronomical Twilight 3:45 AM MDT 10:14 PM MDT
Moon 1:31 AM MDT (7/27) 4:11 PM MDT (7/27)
Length of Visible Light 15h 38m
Length of Day
14h 35m
Waning Crescent, 24% of the Moon is Illuminated
Jul 27
Waning Crescent
Jul 31
New
Aug 7
First Quarter
Aug 15
Full
Aug 23
Last Quarter

Hourly Weather History & Observations

Time (MDT) Temp. Heat Index Dew Point Humidity Pressure Visibility Wind Dir Wind Speed Gust Speed Precip Events Conditions
12:53 AM 73.0 °F - 64.9 °F 76% 29.97 in 10.0 mi Calm Calm - N/A   Clear
1:53 AM 71.1 °F - 64.0 °F 78% 29.96 in 10.0 mi Calm Calm - N/A   Clear
2:53 AM 69.1 °F - 66.9 °F 93% 29.95 in 10.0 mi ESE 3.5 mph - N/A   Clear
3:53 AM 69.1 °F - 66.0 °F 90% 29.95 in 10.0 mi Calm Calm - N/A   Clear
4:53 AM 69.1 °F - 66.0 °F 90% 29.95 in 10.0 mi Calm Calm - N/A   Clear
5:53 AM 68.0 °F - 66.0 °F 93% 29.96 in 10.0 mi NNE 4.6 mph - N/A   Mostly Cloudy
6:53 AM 69.1 °F - 66.9 °F 93% 29.99 in 8.0 mi Calm Calm - 0.00 in Rain Light Rain
7:05 AM 70.0 °F - 66.9 °F 90% 30.12 in 10.0 mi East 3.5 mph - 0.00 in Thunderstorm Overcast
7:43 AM 70.0 °F - 66.0 °F 87% 30.13 in 10.0 mi ENE 4.6 mph - 0.00 in   Clear
7:53 AM 72.0 °F - 66.0 °F 81% 29.99 in 10.0 mi East 4.6 mph - 0.00 in   Clear
8:53 AM 73.9 °F - 64.0 °F 71% 29.99 in 10.0 mi SW 8.1 mph - N/A   Mostly Cloudy
9:53 AM 75.0 °F - 64.0 °F 69% 29.99 in 10.0 mi East 3.5 mph - N/A   Overcast
10:53 AM 75.9 °F - 64.0 °F 67% 30.01 in 10.0 mi Calm Calm - N/A   Mostly Cloudy
11:53 AM 80.1 °F 81.9 °F 64.9 °F 60% 29.99 in 10.0 mi NNE 5.8 mph - N/A   Mostly Cloudy
12:53 PM 81.0 °F 82.2 °F 63.0 °F 54% 29.98 in 10.0 mi SSE 6.9 mph - N/A   Mostly Cloudy
1:53 PM 82.9 °F 83.7 °F 62.1 °F 49% 29.96 in 10.0 mi SSE 9.2 mph - N/A   Mostly Cloudy
2:53 PM 84.9 °F 85.9 °F 63.0 °F 48% 29.93 in 10.0 mi East 8.1 mph - N/A   Clear
3:53 PM 87.1 °F 87.0 °F 61.0 °F 41% 29.91 in 10.0 mi East 9.2 mph - N/A   Clear
4:53 PM 82.9 °F 84.4 °F 64.0 °F 53% 29.91 in 10.0 mi East 4.6 mph - N/A   Mostly Cloudy
5:31 PM 73.9 °F - 61.0 °F 64% 30.08 in 10.0 mi WNW 19.6 mph 29.9 mph 0.00 in Rain , Thunderstorm Light Rain
5:36 PM 73.0 °F - 62.1 °F 68% 30.08 in 10.0 mi WNW 17.3 mph 28.8 mph 0.00 in Rain , Thunderstorm Light Thunderstorms and Rain
5:53 PM 66.9 °F - 64.0 °F 90% 29.96 in 2.0 mi West 24.2 mph 36.8 mph 0.02 in Rain , Thunderstorm Thunderstorms and Rain
5:57 PM 66.0 °F - 64.0 °F 93% 30.09 in 0.8 mi WSW 20.7 mph 36.8 mph 0.08 in Rain , Thunderstorm Heavy Thunderstorms and Rain
6:08 PM 66.9 °F - 64.9 °F 93% 30.08 in 2.0 mi West 6.9 mph - 0.24 in Rain , Thunderstorm Light Thunderstorms and Rain
6:16 PM 68.0 °F - 64.9 °F 90% 30.08 in 9.0 mi NNW 5.8 mph - 0.24 in Rain , Thunderstorm Light Thunderstorms and Rain
6:32 PM 68.0 °F - 64.9 °F 90% 30.08 in 8.0 mi NE 6.9 mph - 0.26 in Rain , Thunderstorm Light Rain
6:53 PM 70.0 °F - 66.0 °F 87% 29.93 in 10.0 mi East 6.9 mph - 0.27 in Thunderstorm Scattered Clouds
7:05 PM 71.1 °F - 66.0 °F 84% 30.05 in 10.0 mi ESE 4.6 mph - N/A   Partly Cloudy
7:53 PM 66.9 °F - 64.9 °F 93% 29.94 in 10.0 mi ESE 8.1 mph - N/A   Clear
8:53 PM 66.9 °F - 64.9 °F 93% 29.94 in 10.0 mi SSW 3.5 mph - N/A   Clear